Fosston, MN

2:45 AM CDT on May 29, 2017 (GMT -0500)
Fosston Municipal

Weather History for KFSE - October, 2011

Change the Weather History Date:

Sunday, October 16, 2011

  Actual Average Record
Temperature  
Mean Temperature 42 °F -  
Max Temperature 48 °F 52 °F 80 °F (1953)
Min Temperature 35 °F 31 °F 12 °F (1952)
Degree Days  
Heating Degree Days 24    
Moisture  
Dew Point 30 °F    
Average Humidity 64    
Maximum Humidity 87    
Minimum Humidity 40    
Precipitation  
Precipitation 0.00 in - - ()
Sea Level Pressure  
Sea Level Pressure 29.78 in    
Wind  
Wind Speed 15 mph (West)    
Max Wind Speed 34 mph    
Max Gust Speed 44 mph    
Visibility 10 miles    
Events      
Averages and records for this station are not official NWS values.
T = Trace of Precipitation, MM = Missing Value Source: NWS Daily Summary

Daily Weather History Graph

Daily Weather History Graph

Search for Another Location

Airport or City:

Trip Planner

Search our weather history database for the weather conditions in past years. The results will help you decide how hot, cold, wet, or windy it might be!

Date:

Astronomy

Oct. 16, 2011 Rise Set
Actual Time 7:42 AM CDT 6:33 PM CDT
Civil Twilight 7:11 AM CDT 7:04 PM CDT
Nautical Twilight 6:36 AM CDT 7:40 PM CDT
Astronomical Twilight 6:00 AM CDT 8:15 PM CDT
Moon 9:01 PM CDT (10/16) 12:19 PM CDT (10/16)
Length of Visible Light 11h 52m
Length of Day
10h 50m
Waning Gibbous, 82% of the Moon is Illuminated
Oct 16
Waning Gibbous
Oct 19
Last Quarter
Oct 26
New
Nov 2
First Quarter
Nov 10
Full

Hourly Weather History & Observations

Time (CDT) Temp. Windchill Dew Point Humidity Pressure Visibility Wind Dir Wind Speed Gust Speed Precip Events Conditions
12:01 AM 41.0 °F 37.1 °F 35.6 °F 81% 29.77 in 10.0 mi WSW 5.8 mph - N/A   Clear
12:41 AM 41.0 °F 35.8 °F 35.6 °F 81% 29.76 in 10.0 mi WSW 8.1 mph - N/A   Scattered Clouds
1:01 AM 42.8 °F 37.0 °F 35.6 °F 76% 29.76 in 10.0 mi WSW 10.4 mph - N/A   Mostly Cloudy
1:21 AM 42.8 °F 37.0 °F 35.6 °F 76% 29.75 in 10.0 mi WSW 10.4 mph - N/A   Mostly Cloudy
1:41 AM 41.0 °F 35.8 °F 35.6 °F 81% 29.76 in 10.0 mi WSW 8.1 mph - N/A   Scattered Clouds
2:21 AM 39.2 °F 34.2 °F 35.6 °F 87% 29.76 in 10.0 mi WSW 6.9 mph - N/A   Mostly Cloudy
2:41 AM 39.2 °F 33.6 °F 35.6 °F 87% 29.75 in 10.0 mi WSW 8.1 mph - N/A   Mostly Cloudy
3:01 AM 39.2 °F 35.0 °F 33.8 °F 81% 29.75 in 10.0 mi WSW 5.8 mph - N/A   Clear
3:21 AM 39.2 °F - 35.6 °F 87% 29.75 in 10.0 mi WSW 2.3 mph - N/A   Clear
4:21 AM 39.2 °F 31.2 °F 33.8 °F 81% 29.75 in 10.0 mi West 13.8 mph 18.4 mph N/A   Scattered Clouds
4:41 AM 39.2 °F 30.8 °F 33.8 °F 81% 29.76 in 10.0 mi West 15.0 mph - N/A   Scattered Clouds
5:01 AM 39.2 °F 30.5 °F 33.8 °F 81% 29.76 in 10.0 mi West 16.1 mph 24.2 mph N/A   Clear
5:21 AM 39.2 °F 30.5 °F 33.8 °F 81% 29.77 in 10.0 mi West 16.1 mph - N/A   Clear
5:41 AM 39.2 °F 30.8 °F 33.8 °F 81% 29.77 in 10.0 mi West 15.0 mph 23.0 mph N/A   Clear
6:01 AM 37.4 °F 29.8 °F 33.8 °F 87% 29.77 in 10.0 mi West 11.5 mph - N/A   Clear
6:21 AM 37.4 °F 28.2 °F 33.8 °F 87% 29.77 in 10.0 mi West 16.1 mph - N/A   Clear
6:41 AM 37.4 °F 28.5 °F 33.8 °F 87% 29.77 in 10.0 mi West 15.0 mph 18.4 mph N/A   Clear
7:21 AM 37.4 °F 28.2 °F 33.8 °F 87% 29.78 in 10.0 mi West 16.1 mph 23.0 mph N/A   Clear
7:41 AM 37.4 °F 27.8 °F 33.8 °F 87% 29.78 in 10.0 mi West 17.3 mph 23.0 mph N/A   Clear
8:01 AM 35.6 °F 26.2 °F 32.0 °F 87% 29.78 in 10.0 mi West 15.0 mph 21.9 mph N/A   Clear
8:21 AM 35.6 °F 26.2 °F 32.0 °F 87% 29.79 in 10.0 mi West 15.0 mph 21.9 mph N/A   Clear
9:01 AM 37.4 °F 27.8 °F 32.0 °F 81% 29.80 in 10.0 mi West 17.3 mph 21.9 mph N/A   Clear
9:21 AM 39.2 °F 30.2 °F 32.0 °F 75% 29.80 in 10.0 mi West 17.3 mph 24.2 mph N/A   Clear
10:01 AM 39.2 °F 28.7 °F 32.0 °F 75% 29.81 in 10.0 mi West 23.0 mph 31.1 mph N/A   Scattered Clouds
10:21 AM 39.2 °F 29.3 °F 30.2 °F 70% 29.81 in 10.0 mi West 20.7 mph 32.2 mph N/A   Scattered Clouds
10:41 AM 41.0 °F 32.2 °F 30.2 °F 65% 29.81 in 10.0 mi West 18.4 mph 28.8 mph N/A   Scattered Clouds
11:01 AM 42.8 °F 34.0 °F 30.2 °F 61% 29.82 in 10.0 mi West 20.7 mph 31.1 mph N/A   Mostly Cloudy
11:41 AM 42.8 °F 33.5 °F 26.6 °F 53% 29.81 in 10.0 mi West 23.0 mph 32.2 mph N/A   Scattered Clouds
1:01 PM 44.6 °F 35.9 °F 24.8 °F 46% 29.82 in 10.0 mi West 23.0 mph 38.0 mph N/A   Scattered Clouds
1:21 PM 46.4 °F 38.1 °F 24.8 °F 43% 29.81 in 10.0 mi West 24.2 mph 33.4 mph N/A   Scattered Clouds
2:01 PM 46.4 °F 38.1 °F 23.0 °F 40% 29.80 in 10.0 mi West 24.2 mph 38.0 mph N/A   Scattered Clouds
2:21 PM 46.4 °F 38.1 °F 26.6 °F 46% 29.79 in 10.0 mi West 24.2 mph 31.1 mph N/A   Scattered Clouds
3:01 PM 48.2 °F - 26.6 °F 43% 29.78 in 10.0 mi West 28.8 mph 42.6 mph N/A   Mostly Cloudy
3:21 PM 48.2 °F - 28.4 °F 46% 29.78 in 10.0 mi West 26.5 mph 38.0 mph N/A   Overcast
3:41 PM 48.2 °F - 26.6 °F 43% 29.77 in 10.0 mi West 27.6 mph 34.5 mph N/A   Overcast
4:01 PM 48.2 °F - 26.6 °F 43% 29.77 in 10.0 mi West 34.5 mph 43.7 mph N/A   Overcast
4:21 PM 48.2 °F - 28.4 °F 46% 29.77 in 10.0 mi West 24.2 mph 35.7 mph N/A   Mostly Cloudy
4:41 PM 48.2 °F - 26.6 °F 43% 29.76 in 10.0 mi West 29.9 mph 39.1 mph N/A   Overcast
5:21 PM 48.2 °F - 26.6 °F 43% 29.76 in 10.0 mi West 26.5 mph 35.7 mph N/A   Mostly Cloudy
5:41 PM 48.2 °F - 26.6 °F 43% 29.76 in 10.0 mi West 28.8 mph 35.7 mph N/A   Mostly Cloudy
6:01 PM 48.2 °F - 26.6 °F 43% 29.76 in 10.0 mi West 26.5 mph 39.1 mph N/A   Mostly Cloudy
6:21 PM 48.2 °F - 26.6 °F 43% 29.76 in 10.0 mi West 23.0 mph 35.7 mph N/A   Mostly Cloudy
6:41 PM 46.4 °F 38.5 °F 26.6 °F 46% 29.76 in 10.0 mi West 21.9 mph 34.5 mph N/A   Mostly Cloudy
7:01 PM 46.4 °F 39.5 °F 26.6 °F 46% 29.77 in 10.0 mi West 17.3 mph 27.6 mph N/A   Mostly Cloudy
7:21 PM 46.4 °F 38.5 °F 28.4 °F 50% 29.77 in 10.0 mi West 21.9 mph - N/A   Mostly Cloudy
8:01 PM 44.6 °F 36.6 °F 26.6 °F 49% 29.78 in 10.0 mi West 19.6 mph 27.6 mph N/A   Scattered Clouds
8:21 PM 44.6 °F 37.2 °F 26.6 °F 49% 29.78 in 10.0 mi West 17.3 mph 23.0 mph N/A   Clear
9:01 PM 42.8 °F 34.8 °F 26.6 °F 53% 29.79 in 10.0 mi West 17.3 mph 24.2 mph N/A   Clear
9:21 PM 42.8 °F 35.1 °F 26.6 °F 53% 29.79 in 10.0 mi West 16.1 mph 21.9 mph N/A   Clear
9:41 PM 42.8 °F 35.1 °F 26.6 °F 53% 29.79 in 10.0 mi West 16.1 mph 20.7 mph N/A   Clear
10:21 PM 41.0 °F 33.1 °F 26.6 °F 57% 29.79 in 10.0 mi West 15.0 mph - N/A   Clear
10:41 PM 39.2 °F 30.5 °F 26.6 °F 61% 29.79 in 10.0 mi West 16.1 mph 20.7 mph N/A   Clear
11:01 PM 39.2 °F 30.5 °F 26.6 °F 61% 29.79 in 10.0 mi West 16.1 mph 23.0 mph N/A   Clear
11:41 PM 39.2 °F 29.8 °F 26.6 °F 61% 29.78 in 10.0 mi West 18.4 mph 24.2 mph N/A   Clear